Regional Weather Roundup
Issued by NWS

Home | Current Version | Previous Version | Graphics & Text | Print | Product List | Glossary On
Versions: 1 2 3 4 5 6 7 8 9 10 11 12 13 14 15 16 17 18 19 20 21 22 23 24 25 26 27 28 29 30 31 32 33 34 35 36 37 38 39 40 41 42 43 44 45 46 47 48 49 50
000
ASUS43 KMKX 310500
RWRWI

WISCONSIN REGIONAL WEATHER ROUNDUP
NATIONAL WEATHER SERVICE MILWAUKEE/SULLIVAN WI
1200 AM CDT FRI JUL 31 2015

NOTE: "FAIR" INDICATES FEW OR NO CLOUDS BELOW 12,000 FEET WITH NO
SIGNIFICANT WEATHER AND/OR OBSTRUCTIONS TO VISIBILITY.

WIZ001-002-006>008-014>016-023>028-310600-
NORTHWEST WISCONSIN

CITY           SKY/WX    TMP DP  RH WIND       PRES   REMARKS
SUPERIOR ARPT  CLEAR     64  56  76 SW7       29.92F
ASHLAND        CLEAR     64  55  72 SW7       29.91F
HAYWARD        CLEAR     61  55  81 CALM      29.97S
SIREN          CLEAR     66  57  72 W6        29.98F
CUMBERLAND     CLEAR     63  55  77 SW6       30.00S
RICE LAKE      CLEAR     65  57  77 W6        30.01S
CHETEK         CLEAR     71  58  65 W6        29.99F
LADYSMITH      CLEAR     68  57  69 W6        29.99F
EAU CLAIRE     CLEAR     65  57  75 SW7       29.99S
MENOMONIE      CLEAR     70  57  63 W6        30.00F
NEW RICHMOND   CLEAR     65  56  73 W6        30.02S
OSCEOLA        CLEAR     68  58  70 W7        30.03S
$$

WIZ003>005-009-010-017-018-310600-
NORTH CENTRAL WISCONSIN

CITY           SKY/WX    TMP DP  RH WIND       PRES   REMARKS
MANITOWISH WTR CLEAR     62  57  83 W6        29.94F
ARBOR VITAE    CLEAR     65  56  74 W5        29.95F
WOODRUFF       CLEAR     65  56  74 W5        29.95F
RHINELANDER    CLEAR     61  55  81 W8        29.96F
EAGLE RIVER    CLEAR     58  58  97 W7        29.94S
LAND O LAKES   CLEAR     59  56  91 W3        29.94F
PHILLIPS       CLEAR     64  56  75 W3        29.96F
TOMAHAWK       CLEAR     58  55  90 CALM      29.97F
MEDFORD        PTCLDY    66  56  71 SW3       29.99F
MERRILL        NOT AVBL
$$

WIZ029-030-035-036-043>047-310600-
CENTRAL WISCONSIN

CITY           SKY/WX    TMP DP  RH WIND       PRES   REMARKS
WAUSAU         CLEAR     71  56  58 W12       29.96F
MOSINEE        CLEAR     64  55  72 SW6       29.99F
MARSHFIELD     CLEAR     66  56  70 W5        30.00S
STEVENS POINT  CLEAR     69  56  63 W6        29.99F
WAUPACA        CLEAR     70  57  63 W7        29.98S
WAUTOMA        NOT AVBL
WISC RAPIDS    CLEAR     68  57  68 W6        30.01S
CAMP DOUGLAS   NOT AVBL
$$

WIZ011>013-019>022-031-037>040-048>050-310600-
NORTHEAST WISCONSIN

CITY           SKY/WX    TMP DP  RH WIND       PRES   REMARKS
ANTIGO         CLEAR     60  58  90 W6        29.98S
SHAWANO        CLEAR     67  60  78 SW3       29.95F
OCONTO         CLEAR     62  59  90 CALM      29.92F
STURGEON BAY   PTCLDY    66  57  72 SW7       29.94F
GREEN BAY      CLEAR     66  58  75 SW6       29.95F
MANITOWOC      NOT AVBL
APPLETON       CLEAR     68  52  56 W6        29.98S
CLINTONVILLE   CLEAR     64  55  72 W7        29.96F
OSHKOSH        CLEAR     70  55  59 VRB3      29.97F
$$

WIZ032>034-041-042-053>061-310600-
SOUTHWEST WISCONSIN

CITY           SKY/WX    TMP DP  RH WIND       PRES   REMARKS
LA CROSSE      CLEAR     71  60  68 SE5       30.01F
SPARTA         CLEAR     61  56  84 CALM      30.03S
VIROQUA        CLEAR     66  58  74 SW5       30.05S
BOSCOBEL       CLEAR     64  60  87 SW3       30.04S
PRAIRIE DU CHI CLEAR     64  59  82 E3        30.04S
PLATTEVILLE    CLEAR     68  61  78 SW5       30.06F
$$

WIZ056-057-062-063-064-067-068-310600-
SOUTH CENTRAL WISCONSIN

CITY           SKY/WX    TMP DP  RH WIND       PRES   REMARKS
REEDSBURG      CLEAR     70  58  65 CALM      30.02F
BARABOO/DELLS  CLEAR     70  55  58 W5        30.02F
LONE ROCK      NOT AVBL
MINERAL POINT  CLEAR     66  59  77 W5        30.06S
MADISON        CLEAR     71  55  56 CALM      30.02S
MIDDLETON      CLEAR     63  57  81 W3        30.03F
WATERTOWN      CLEAR     69  57  65 W5        30.01S
MONROE         CLEAR     68  59  73 W12       30.05S
JANESVILLE     CLEAR     64  55  72 W3        30.03R
$$

WIZ051-052-058>065-066-070>072-310600-
SOUTHEAST WISCONSIN

CITY           SKY/WX    TMP DP  RH WIND       PRES   REMARKS
MILWAUKEE      CLEAR     77  54  44 W8        29.99S
WAUKESHA       CLEAR     68  54  60 W7        30.02S
MILWAUKEE/TIMM CLEAR     72  52  49 W6        30.00S
RACINE         CLEAR     72  56  57 W6        30.01S
BURLINGTON     CLEAR     66  55  68 W5        30.02R
KENOSHA        CLEAR     65  57  75 W7        30.01R
FOND DU LAC    CLEAR     70  57  63 W7        29.99S
SHEBOYGAN      CLEAR     65  57  75 MISG      29.98R
WEST BEND      CLEAR     70  52  52 W3        30.00S
JUNEAU         CLEAR     68  56  64 W7        30.02S
$$

LSZ147-162-310600-
LAKE SUPERIOR

STATION/POSITION TIME  TEMP    WIND        PRES    WAVE
                       AIR SEA DIR/SP/G            HT/PER
                 (UTC) (F)     (DEG/KT/KT) (MB)    (FT/S)
W MID LAKE BUOY  0350   57 54   CALM  /  2 1011.7R   1/ 3
DEVILS ISLAND    0400   65     250/ 16/ 19 1011.7F
PORT WING        0400   69     190/  6/  9 1012.9S
SAXON HARBOR     0440   67                 1011.9F
$$

LMZ867-665-643>646-310600-
LAKE MICHIGAN

STATION/POSITION TIME  TEMP    WIND        PRES    WAVE
                       AIR SEA DIR/SP/G            HT/PER
                 (UTC) (F)     (DEG/KT/KT) (MB)    (FT/S)
CHAMBERS ISLAND  0400   68     200/  4/  7 1012.9S
S GREEN BAY BUOY 0430   70 71  230/ 10/ 14 1014.7F
N MID LAKE BUOY  0350   71 69  250/ 14/ 16 1011.5F   2/ 4
NORTHPORT PIER   0400   70     240/  3/  7 1012.2F
SISTER BAY       0444   73     280/ 11/ 13   N/A
ALGOMA LAKESHORE 0427             CALM       N/A
KEWAUNEE LAKESHO 0400   68     290/  4/  5 1013.4F
SHEBOYGAN LAKESH 0400   74     260/  8/  8 1014.8R
PORT WASHINGTON  0400   75     280/  5/  7 1015.6
ATWATER BUOY     0400   73 65  280/ 10/ 10 1016.6R
MILWAUKEE LAKESH 0400   78     290/ 10/ 13   N/A
KENOSHA   LAKESH 0400   76     270/  9/ 12 1015.2R
$$

TC  - TEMPERATURE IN CELSIUS
VSB - VISIBILITY IN STATUTE MILES
WCI - WIND CHILL INDEX
HX  - HEAT INDEX




USA.gov is the U.S. government's official web portal to all federal, state and local government web resources and services.